Portada
METAR-TAF:

METAR-TAF

Aeroports :

Bombai, Índia

latitud: 19-05-53N, longitud: 072-50-02E, altitud: 4 m

Observació

L'informe es va fer fa 27 minuts, a les 03:30 UTC
Vent 6 kt del Est/Sud-Est
Temperatura 28°C
Humitat 55%
Pressió 1014 hPa
Visibilitat: 3000 m
fum

METAR: VAJJ 140330Z 12006KT 3000 FU NSC 28/18 Q1014 NOSIG

Hora: 09:27 (03:57 UTC)


TAF: manca

Observacions i pronòstics meteorològics de més de 4000 aeroports (METAR i TAF).

Les estacions disponibles són els punts grocs i vermells al mapa.

Posi el ratolí al punt desitjat per veure el nom de l'estació.

Feu clic per veure les observacions i els pronòstics meteorològics.

Per canviar el mapa: feu clic els botons verds amb una creu de color negre per apropar; al botó verd amb un guió per allunyar la imatge; o en les fletxes verdes per a mapes adjacents.


METAR-TAF: